Date String (YYYY-MM-DD hh:mm:ss) UTC,Instrument flags,absolute air pressure of the measurement (hPa),sample flow rate (lpm),inlet stack bypass flow (lpm),air temperature of the measurement (°C),ambient temperature measured by the external sensor (°C),aerosol sample conditioner tube jacket temperature (°C),OPC LED temperature (°C),internal box temperature (°C),relative humidity of the measurement (%),span deviation,mass concentration of particles derived from Lorenz-Mie calculation of OPC scattering (μg/m³),mass concentration of particles derived from Lorenz-Mie calculation of OPC scattering (μg/m³),mass concentration of particles derived from Lorenz-Mie calculation of OPC scattering (μg/m³)
DateTimeUTC,F1_M11,P_M11,Q1_M11,Q2_M11,T1_M11,T2_M11,T3_M11,T4_M11,T5_M11,U1_M11,ZSPAN_M11,X0_M11,X2_M11,X1_M11
2024-03-03 16:00:00,SystemResetWarning,0817.5,5.00,000.00,018.3,017.1,000.0,027.0,020.0,12.1,0000.0,0001.33,0000.43,0000.17
2024-03-03 16:01:00,SystemResetWarning,0817.5,5.00,000.00,018.3,017.1,000.0,027.0,020.0,12.3,0000.0,0001.35,0000.45,0000.17
2024-03-03 16:02:00,SystemResetWarning,0817.5,5.00,000.00,018.3,017.1,000.0,027.0,020.0,12.5,0000.0,0001.24,0000.45,0000.16
2024-03-03 16:03:00,SystemResetWarning,0817.5,5.00,000.00,018.3,017.1,000.0,026.9,020.0,12.2,0000.0,0000.88,0000.42,0000.16
2024-03-03 16:04:00,SystemResetWarning,0817.5,5.00,000.00,018.2,017.1,000.0,026.9,020.0,12.0,0000.0,0000.92,0000.41,0000.15
2024-03-03 16:05:00,SystemResetWarning,0817.5,5.00,000.00,018.2,017.1,000.0,026.9,020.0,12.2,0000.0,0001.07,0000.43,0000.16
2024-03-03 16:06:00,SystemResetWarning,0817.4,5.00,000.00,018.2,017.1,000.0,026.9,020.0,12.0,0000.0,0002.66,0000.43,0000.16
2024-03-03 16:07:00,SystemResetWarning,0817.5,5.00,000.00,018.2,017.1,000.0,026.9,020.0,11.9,0000.0,0002.66,0000.43,0000.15
2024-03-03 16:08:00,SystemResetWarning,0817.5,5.00,000.00,018.2,017.0,000.0,026.9,020.0,11.6,0000.0,0002.72,0000.44,0000.15
2024-03-03 16:09:00,SystemResetWarning,0817.5,5.00,000.00,018.2,017.0,000.0,026.9,020.0,12.1,0000.0,0002.67,0000.43,0000.16
2024-03-03 16:10:00,SystemResetWarning,0817.4,4.99,000.00,018.2,017.0,000.0,026.9,020.0,11.8,0000.0,0002.68,0000.44,0000.16
2024-03-03 16:11:00,SystemResetWarning,0817.5,5.01,000.00,018.2,017.0,000.0,026.9,020.0,11.7,0000.0,0002.75,0000.45,0000.17
2024-03-03 16:12:00,SystemResetWarning,0817.5,5.00,000.00,018.2,017.2,000.0,026.9,020.1,12.2,0000.0,0003.90,0000.46,0000.17
2024-03-03 16:13:00,SystemResetWarning,0817.5,5.00,000.00,018.4,018.2,000.0,027.0,020.6,11.7,0000.0,0003.86,0000.45,0000.17
2024-03-03 16:14:00,SystemResetWarning,0817.5,5.00,000.00,018.7,019.1,000.0,027.1,021.1,11.7,0000.0,0003.84,0000.43,0000.17
2024-03-03 16:15:00,SystemResetWarning,0817.5,4.99,000.00,018.8,019.0,000.0,027.0,021.0,11.8,0000.0,0003.99,0000.44,0000.17
2024-03-03 16:16:00,SystemResetWarning,0817.5,4.99,000.00,018.8,018.8,000.0,027.0,020.7,11.5,0000.0,0003.77,0000.41,0000.16
2024-03-03 16:17:00,SystemResetWarning,0817.5,5.01,000.00,018.7,018.6,000.0,027.0,020.5,11.4,0000.0,0002.67,0000.45,0000.16
2024-03-03 16:18:00,SystemResetWarning,0817.5,5.00,000.00,018.7,018.4,000.0,027.0,020.3,12.0,0000.0,0002.30,0000.43,0000.17
2024-03-03 16:19:00,SystemResetWarning,0817.6,5.01,000.00,018.6,018.2,000.0,027.0,020.2,11.8,0000.0,0002.21,0000.41,0000.17
2024-03-03 16:20:00,SystemResetWarning,0817.6,5.00,000.00,018.6,018.0,000.0,026.9,020.2,11.6,0000.0,0002.14,0000.39,0000.17
2024-03-03 16:21:00,SystemResetWarning,0817.6,4.99,000.00,018.5,017.9,000.0,026.9,020.1,11.6,0000.0,0002.18,0000.36,0000.18
2024-03-03 16:22:00,SystemResetWarning,0817.6,5.00,000.00,018.5,017.8,000.0,026.9,020.0,11.7,0000.0,0002.10,0000.35,0000.18
2024-03-03 16:23:00,SystemResetWarning,0817.6,5.00,000.00,018.4,017.7,000.0,027.0,020.0,11.6,0000.0,0001.26,0000.36,0000.18
2024-03-03 16:24:00,SystemResetWarning,0817.6,4.99,000.00,018.4,017.6,000.0,027.0,020.0,11.9,0000.0,0000.91,0000.34,0000.18
2024-03-03 16:25:00,SystemResetWarning,0817.6,5.00,000.00,018.4,017.5,000.0,027.0,020.0,11.8,0000.0,0000.98,0000.36,0000.19
2024-03-03 16:26:00,SystemResetWarning,0817.6,5.01,000.00,018.4,017.5,000.0,027.0,020.0,11.9,0000.0,0000.98,0000.37,0000.19
2024-03-03 16:27:00,SystemResetWarning,0817.6,5.00,000.00,018.3,017.4,000.0,027.0,020.0,11.5,0000.0,0000.95,0000.37,0000.20
2024-03-03 16:28:00,SystemResetWarning,0817.6,4.99,000.00,018.3,017.4,000.0,027.0,020.0,11.8,0000.0,0000.95,0000.36,0000.20
2024-03-03 16:29:00,SystemResetWarning,0817.7,4.99,000.00,018.3,017.3,000.0,027.0,020.0,11.9,0000.0,0000.88,0000.34,0000.20
2024-03-03 16:30:00,SystemResetWarning,0817.7,5.01,000.00,018.3,017.3,000.0,027.0,020.0,11.9,0000.0,0001.01,0000.34,0000.19
2024-03-03 16:31:00,SystemResetWarning,0817.7,5.01,000.00,018.3,017.3,000.0,027.0,020.0,12.0,0000.0,0001.00,0000.34,0000.19
2024-03-03 16:32:00,SystemResetWarning,0817.7,5.00,000.00,018.3,017.2,000.0,027.0,020.0,11.9,0000.0,0000.94,0000.33,0000.18
2024-03-03 16:33:00,SystemResetWarning,0817.7,5.00,000.00,018.3,017.2,000.0,027.0,020.0,11.9,0000.0,0000.95,0000.34,0000.18
2024-03-03 16:34:00,SystemResetWarning,0817.7,5.00,000.00,018.3,017.2,000.0,027.0,020.0,12.0,0000.0,0000.99,0000.36,0000.19
2024-03-03 16:35:00,SystemResetWarning,0817.7,5.00,000.00,018.3,017.1,000.0,027.0,020.0,12.0,0000.0,0001.01,0000.36,0000.19
2024-03-03 16:36:00,SystemResetWarning,0817.7,5.01,000.00,018.2,017.1,000.0,026.9,020.0,11.8,0000.0,0000.99,0000.36,0000.19
2024-03-03 16:37:00,SystemResetWarning,0817.8,5.00,000.00,018.2,017.1,000.0,026.9,020.0,11.7,0000.0,0000.97,0000.38,0000.19
2024-03-03 16:38:00,SystemResetWarning,0817.8,5.00,000.00,018.2,017.1,000.0,026.9,020.0,11.8,0000.0,0000.94,0000.37,0000.19
2024-03-03 16:39:00,SystemResetWarning,0817.7,5.00,000.00,018.2,017.1,000.0,026.9,020.0,11.9,0000.0,0000.85,0000.35,0000.19
2024-03-03 16:40:00,SystemResetWarning,0817.8,4.99,000.00,018.2,017.1,000.0,026.9,020.0,11.8,0000.0,0000.86,0000.37,0000.19
2024-03-03 16:41:00,SystemResetWarning,0817.8,4.99,000.00,018.2,017.1,000.0,026.9,020.0,11.8,0000.0,0000.84,0000.40,0000.19
2024-03-03 16:42:00,SystemResetWarning,0817.8,4.99,000.00,018.2,017.0,000.0,026.9,020.0,11.9,0000.0,0000.82,0000.40,0000.19
2024-03-03 16:43:00,SystemResetWarning,0817.8,5.00,000.00,018.2,017.0,000.0,026.9,020.0,12.1,0000.0,0000.83,0000.40,0000.20
2024-03-03 16:44:00,SystemResetWarning,0817.7,5.01,000.00,018.2,017.0,000.0,026.9,020.0,12.3,0000.0,0000.84,0000.40,0000.19
2024-03-03 16:45:00,SystemResetWarning,0817.7,5.00,000.00,018.2,017.1,000.0,026.9,020.1,12.5,0000.0,0000.75,0000.36,0000.19
2024-03-03 16:46:00,SystemResetWarning,0817.7,5.00,000.00,018.4,018.1,000.0,027.0,020.5,12.3,0000.0,0000.70,0000.34,0000.18
2024-03-03 16:47:00,SystemResetWarning,0817.8,5.00,000.00,018.7,019.1,000.0,027.0,021.1,12.2,0000.0,0000.67,0000.33,0000.17
2024-03-03 16:48:00,SystemResetWarning,0817.7,4.99,000.00,018.8,019.0,000.0,027.0,020.9,11.6,0000.0,0000.55,0000.28,0000.16
2024-03-03 16:49:00,SystemResetWarning,0817.6,5.00,000.00,018.7,018.7,000.0,027.0,020.6,11.9,0000.0,0000.55,0000.28,0000.16
2024-03-03 16:50:00,SystemResetWarning,0817.6,5.01,000.00,018.7,018.5,000.0,027.0,020.5,11.9,0000.0,0000.54,0000.27,0000.15
2024-03-03 16:51:00,SystemResetWarning,0817.7,4.99,000.00,018.6,018.3,000.0,026.9,020.3,11.7,0000.0,0000.52,0000.26,0000.15
2024-03-03 16:52:00,SystemResetWarning,0817.6,4.99,000.00,018.6,018.2,000.0,026.9,020.2,12.0,0000.0,0000.46,0000.25,0000.15
2024-03-03 16:53:00,SystemResetWarning,0817.6,4.99,000.00,018.5,018.0,000.0,026.9,020.1,11.7,0000.0,0000.45,0000.25,0000.15
2024-03-03 16:54:00,SystemResetWarning,0817.6,5.01,000.00,018.5,017.9,000.0,026.9,020.0,12.0,0000.0,0000.46,0000.26,0000.15
2024-03-03 16:55:00,SystemResetWarning,0817.7,5.00,000.00,018.4,017.8,000.0,026.9,020.0,11.9,0000.0,0000.48,0000.27,0000.16
2024-03-03 16:56:00,SystemResetWarning,0817.7,5.00,000.00,018.4,017.7,000.0,026.9,020.0,11.6,0000.0,0000.52,0000.29,0000.17
2024-03-03 16:57:00,SystemResetWarning,0817.7,5.00,000.00,018.4,017.6,000.0,026.9,020.0,11.9,0000.0,0000.62,0000.33,0000.18
2024-03-03 16:58:00,SystemResetWarning,0817.6,4.99,000.00,018.4,017.6,000.0,026.9,020.0,11.6,0000.0,0000.67,0000.35,0000.19
2024-03-03 16:59:00,SystemResetWarning,0817.6,5.01,000.00,018.3,017.5,000.0,026.9,020.0,11.8,0000.0,0000.81,0000.43,0000.19
